Hourly Weather Rudnya-Zherevtsi

Today, 15 April, Thursday

Time Temperature Precipitation Wind Pressure Humidity
00:00 +8°C° 0.1 mm 1 mps 743 mmHg 91%
01:00 +8°C° 0.1 mm 1 mps 743 mmHg 92%
02:00 +7°C° 0 mm 2 mps 743 mmHg 94%
03:00 +7°C° 0.4 mm 2 mps 743 mmHg 95%
04:00 +7°C° 0.4 mm 2 mps 743 mmHg 96%
05:00 +7°C° 0.4 mm 2 mps 743 mmHg 97%
06:00 +7°C° 0.4 mm 2 mps 743 mmHg 95%
07:00 +7°C° 0.4 mm 2 mps 743 mmHg 94%
08:00 +8°C° 0.4 mm 2 mps 743 mmHg 93%
09:00 +8°C° 0.2 mm 2 mps 743 mmHg 92%
10:00 +8°C° 0.2 mm 2 mps 743 mmHg 91%
11:00 +9°C° 0.2 mm 2 mps 743 mmHg 89%
12:00 +9°C° 0.6 mm 2 mps 743 mmHg 90%
13:00 +9°C° 0.6 mm 2 mps 742 mmHg 91%
14:00 +9°C° 0.6 mm 3 mps 742 mmHg 91%
15:00 +9°C° 1.2 mm 3 mps 742 mmHg 93%
16:00 +8°C° 1.2 mm 3 mps 742 mmHg 94%
17:00 +8°C° 1.2 mm 3 mps 742 mmHg 95%
18:00 +8°C° 0.6 mm 3 mps 742 mmHg 95%
19:00 +8°C° 0.6 mm 3 mps 742 mmHg 95%
20:00 +8°C° 0.6 mm 3 mps 741 mmHg 95%
21:00 +7°C° 1 mm 3 mps 741 mmHg 96%
22:00 +7°C° 1 mm 3 mps 741 mmHg 96%
23:00 +7°C° 1 mm 3 mps 741 mmHg 96%

Tomorrow, 16 April, Friday

Time Temperature Precipitation Wind Pressure Humidity
00:00 +7°C° 0.7 mm 3 mps 741 mmHg 97%
01:00 +5°C° 0.7 mm 3 mps 741 mmHg 97%
02:00 +6°C° 0.7 mm 2 mps 740 mmHg 97%
03:00 +6°C° 0.5 mm 2 mps 740 mmHg 97%
04:00 +6°C° 0.5 mm 2 mps 740 mmHg 97%
05:00 +6°C° 0.5 mm 2 mps 740 mmHg 97%
06:00 +6°C° 0.1 mm 2 mps 740 mmHg 96%
07:00 +6°C° 0.1 mm 2 mps 740 mmHg 95%
08:00 +6°C° 0.1 mm 2 mps 741 mmHg 94%
09:00 +6°C° 0.1 mm 2 mps 741 mmHg 93%
10:00 +6°C° 0.1 mm 2 mps 741 mmHg 92%
11:00 +6°C° 0.1 mm 2 mps 741 mmHg 91%
12:00 +5°C° 0.2 mm 3 mps 742 mmHg 91%
13:00 +5°C° 0.2 mm 3 mps 742 mmHg 92%
14:00 +4°C° 0.2 mm 3 mps 742 mmHg 92%
15:00 +4°C° 0.3 mm 3 mps 742 mmHg 93%
16:00 +4°C° 0.3 mm 3 mps 742 mmHg 94%
17:00 +3°C° 0.3 mm 3 mps 743 mmHg 95%
18:00 +3°C° 0.1 mm 3 mps 743 mmHg 95%
19:00 +4°C° 0.1 mm 2 mps 743 mmHg 96%
20:00 +4°C° 0.1 mm 2 mps 744 mmHg 96%
21:00 +3°C° 0 mm 2 mps 744 mmHg 96%
22:00 +3°C° 0 mm 2 mps 744 mmHg 97%
23:00 +3°C° 0 mm 2 mps 744 mmHg 97%

Day after tomorrow, 17 April, Saturday

Time Temperature Precipitation Wind Pressure Humidity
00:00 +4°C° 0 mm 1 mps 745 mmHg 97%
01:00 +4°C° 0 mm 1 mps 745 mmHg 97%
02:00 +4°C° 0 mm 1 mps 745 mmHg 97%
03:00 +4°C° 0 mm 1 mps 745 mmHg 97%
04:00 +4°C° 0 mm 1 mps 746 mmHg 97%
05:00 +4°C° 0 mm 1 mps 746 mmHg 97%
06:00 +4°C° 0 mm 1 mps 746 mmHg 96%
07:00 +4°C° 0 mm 1 mps 747 mmHg 95%
08:00 +5°C° 0 mm 1 mps 747 mmHg 94%
09:00 +5°C° 0 mm 1 mps 747 mmHg 89%
10:00 +6°C° 0 mm 1 mps 748 mmHg 84%
11:00 +7°C° 0 mm 1 mps 748 mmHg 79%
12:00 +8°C° 0 mm 1 mps 748 mmHg 77%
13:00 +8°C° 0 mm 1 mps 748 mmHg 75%
14:00 +9°C° 0 mm 1 mps 748 mmHg 73%
15:00 +9°C° 0 mm 1 mps 748 mmHg 72%
16:00 +9°C° 0 mm 1 mps 748 mmHg 72%
17:00 +9°C° 0 mm 1 mps 748 mmHg 71%
18:00 +9°C° 0 mm 1 mps 748 mmHg 74%
19:00 +8°C° 0 mm 1 mps 748 mmHg 77%
20:00 +7°C° 0 mm 1 mps 748 mmHg 80%
21:00 +7°C° 0 mm 1 mps 748 mmHg 82%
22:00 +5°C° 0 mm 2 mps 748 mmHg 85%
23:00 +4°C° 0 mm 2 mps 748 mmHg 88%

18 April, Sunday

Time Temperature Precipitation Wind Pressure Humidity
00:00 +4°C° 0 mm 2 mps 748 mmHg 89%
01:00 +3°C° 0 mm 2 mps 748 mmHg 91%
02:00 +3°C° 0 mm 2 mps 748 mmHg 93%
03:00 +3°C° 0 mm 2 mps 748 mmHg 93%
04:00 +3°C° 0 mm 2 mps 747 mmHg 93%
05:00 +3°C° 0 mm 2 mps 747 mmHg 94%
06:00 +4°C° 0 mm 2 mps 747 mmHg 90%
07:00 +5°C° 0 mm 2 mps 747 mmHg 87%
08:00 +6°C° 0 mm 2 mps 747 mmHg 83%
09:00 +7°C° 0 mm 2 mps 748 mmHg 81%
10:00 +7°C° 0 mm 2 mps 748 mmHg 79%
11:00 +8°C° 0 mm 2 mps 748 mmHg 77%
12:00 +8°C° 0 mm 2 mps 748 mmHg 77%
13:00 +9°C° 0 mm 1 mps 748 mmHg 76%
14:00 +10°C° 0 mm 1 mps 748 mmHg 76%
15:00 +9°C° 0 mm 2 mps 748 mmHg 78%
16:00 +9°C° 0 mm 2 mps 748 mmHg 79%
17:00 +8°C° 0 mm 2 mps 748 mmHg 81%
18:00 +8°C° 0 mm 2 mps 748 mmHg 85%
19:00 +7°C° 0 mm 2 mps 748 mmHg 89%
20:00 +7°C° 0 mm 2 mps 748 mmHg 92%
21:00 +7°C° 0 mm 2 mps 748 mmHg 92%
22:00 +7°C° 0 mm 2 mps 748 mmHg 92%
23:00 +7°C° 0 mm 2 mps 748 mmHg 93%

19 April, Monday

Time Temperature Precipitation Wind Pressure Humidity
00:00 +7°C° 0 mm 2 mps 748 mmHg 93%
01:00 +7°C° 0 mm 2 mps 748 mmHg 94%
02:00 +7°C° 0 mm 2 mps 748 mmHg 94%
03:00 +7°C° 0 mm 2 mps 748 mmHg 94%
04:00 +7°C° 0 mm 3 mps 748 mmHg 94%
05:00 +5°C° 0 mm 3 mps 748 mmHg 94%
06:00 +7°C° 0 mm 3 mps 748 mmHg 91%
07:00 +7°C° 0 mm 3 mps 748 mmHg 89%
08:00 +7°C° 0 mm 3 mps 748 mmHg 87%
09:00 +7°C° 0 mm 4 mps 748 mmHg 82%
10:00 +8°C° 0 mm 4 mps 748 mmHg 76%
11:00 +10°C° 0 mm 4 mps 748 mmHg 71%
12:00 +10°C° 0 mm 4 mps 748 mmHg 67%
13:00 +11°C° 0 mm 4 mps 748 mmHg 63%
14:00 +12°C° 0 mm 4 mps 747 mmHg 59%
15:00 +12°C° 0 mm 5 mps 747 mmHg 60%
16:00 +10°C° 0 mm 5 mps 747 mmHg 61%
17:00 +10°C° 0 mm 5 mps 747 mmHg 62%
18:00 +9°C° 0 mm 5 mps 746 mmHg 65%
19:00 +8°C° 0 mm 5 mps 746 mmHg 69%
20:00 +8°C° 0 mm 5 mps 746 mmHg 72%
21:00 +7°C° 0 mm 5 mps 746 mmHg 75%
22:00 +7°C° 0 mm 5 mps 746 mmHg 77%
23:00 +6°C° 0 mm 4 mps 745 mmHg 80%

20 April, Tuesday

Time Temperature Precipitation Wind Pressure Humidity
00:00 +6°C° 0 mm 5 mps 745 mmHg 81%
01:00 +6°C° 0 mm 5 mps 745 mmHg 82%
02:00 +6°C° 0 mm 5 mps 744 mmHg 83%
03:00 +5°C° 0 mm 6 mps 744 mmHg 84%
04:00 +4°C° 0 mm 6 mps 744 mmHg 85%
05:00 +4°C° 0 mm 6 mps 744 mmHg 86%
06:00 +4°C° 0 mm 6 mps 744 mmHg 83%
07:00 +4°C° 0 mm 6 mps 744 mmHg 80%
08:00 +4°C° 0 mm 6 mps 744 mmHg 77%
09:00 +5°C° 0 mm 7 mps 743 mmHg 72%
10:00 +6°C° 0 mm 7 mps 743 mmHg 66%
11:00 +8°C° 0 mm 7 mps 743 mmHg 61%
12:00 +8°C° 0 mm 6 mps 742 mmHg 61%
13:00 +9°C° 0 mm 6 mps 742 mmHg 62%
14:00 +9°C° 0 mm 6 mps 742 mmHg 62%
15:00 +9°C° 0 mm 6 mps 742 mmHg 61%
16:00 +9°C° 0 mm 6 mps 742 mmHg 61%
17:00 +9°C° 0 mm 6 mps 741 mmHg 60%
18:00 +8°C° 0 mm 5 mps 741 mmHg 62%
19:00 +7°C° 0 mm 5 mps 741 mmHg 64%
20:00 +7°C° 0 mm 5 mps 741 mmHg 65%
21:00 +6°C° 0 mm 5 mps 741 mmHg 69%
22:00 +5°C° 0 mm 4 mps 741 mmHg 72%
23:00 +4°C° 0 mm 4 mps 741 mmHg 76%
Show more